• In Hungary
  • List of Countries
  • For 7 days
  • Water Temperature
  • Satellite Maps
  • Weather Map
  • News
  • Weather Widgets
  • user-avatar
    Login

    Hourly Weather Przelaj

    Today, 17 July, Tuesday

    Time Temperature Precipitation Wind Pressure Humidity
    00:00 +16°C° 0 mm 2 mps 732 mmHg 94%
    01:00 +16°C° 0 mm 2 mps 731 mmHg 96%
    02:00 +16°C° 0.2 mm 2 mps 731 mmHg 96%
    03:00 +16°C° 0.2 mm 2 mps 731 mmHg 97%
    04:00 +16°C° 0.2 mm 2 mps 731 mmHg 97%
    05:00 +17°C° 0.6 mm 3 mps 731 mmHg 96%
    06:00 +17°C° 0.6 mm 3 mps 731 mmHg 95%
    07:00 +18°C° 0 mm 4 mps 731 mmHg 94%
    08:00 +18°C° 1.3 mm 4 mps 731 mmHg 93%
    09:00 +18°C° 1.3 mm 4 mps 730 mmHg 92%
    10:00 +19°C° 1.3 mm 4 mps 730 mmHg 91%
    11:00 +20°C° 0.7 mm 5 mps 730 mmHg 88%
    12:00 +21°C° 0.7 mm 5 mps 730 mmHg 84%
    13:00 +22°C° 0.7 mm 6 mps 730 mmHg 80%
    14:00 +22°C° 0.6 mm 6 mps 730 mmHg 81%
    15:00 +21°C° 0.6 mm 6 mps 730 mmHg 81%
    16:00 +21°C° 0.6 mm 6 mps 730 mmHg 81%
    17:00 +21°C° 0.4 mm 5 mps 730 mmHg 85%
    18:00 +20°C° 0.4 mm 5 mps 730 mmHg 88%
    19:00 +19°C° 0.4 mm 4 mps 730 mmHg 91%
    20:00 +19°C° 0 mm 4 mps 730 mmHg 92%
    21:00 +18°C° 0 mm 4 mps 730 mmHg 94%
    22:00 +18°C° 0 mm 4 mps 730 mmHg 95%
    23:00 +18°C° 0 mm 4 mps 730 mmHg 95%

    Tomorrow, 18 July, Wednesday

    Time Temperature Precipitation Wind Pressure Humidity
    00:00 +18°C° 0 mm 4 mps 730 mmHg 96%
    01:00 +18°C° 0 mm 4 mps 730 mmHg 96%
    02:00 +18°C° 0.2 mm 4 mps 730 mmHg 96%
    03:00 +18°C° 0.2 mm 4 mps 730 mmHg 96%
    04:00 +18°C° 0.2 mm 4 mps 729 mmHg 96%
    05:00 +18°C° 1 mm 4 mps 729 mmHg 96%
    06:00 +18°C° 1 mm 4 mps 729 mmHg 95%
    07:00 +18°C° 1 mm 4 mps 729 mmHg 95%
    08:00 +19°C° 0.6 mm 4 mps 729 mmHg 93%
    09:00 +19°C° 0.6 mm 3 mps 730 mmHg 91%
    10:00 +20°C° 0.6 mm 3 mps 730 mmHg 89%
    11:00 +21°C° 0.3 mm 3 mps 730 mmHg 86%
    12:00 +22°C° 0.3 mm 3 mps 730 mmHg 83%
    13:00 +24°C° 0.3 mm 3 mps 730 mmHg 80%
    14:00 +24°C° 0.9 mm 3 mps 730 mmHg 80%
    15:00 +25°C° 0.9 mm 3 mps 730 mmHg 80%
    16:00 +25°C° 0.9 mm 4 mps 730 mmHg 80%
    17:00 +23°C° 2.7 mm 4 mps 730 mmHg 83%
    18:00 +22°C° 2.7 mm 4 mps 730 mmHg 86%
    19:00 +22°C° 2.7 mm 4 mps 731 mmHg 89%
    20:00 +21°C° 2.5 mm 4 mps 731 mmHg 91%
    21:00 +21°C° 2.5 mm 4 mps 731 mmHg 93%
    22:00 +20°C° 2.5 mm 4 mps 732 mmHg 94%
    23:00 +20°C° 1 mm 5 mps 732 mmHg 95%

    Day after tomorrow, 19 July, Thursday

    Time Temperature Precipitation Wind Pressure Humidity
    00:00 +20°C° 1 mm 5 mps 732 mmHg 96%
    01:00 +20°C° 1 mm 5 mps 732 mmHg 96%
    02:00 +20°C° 0.3 mm 5 mps 732 mmHg 96%
    03:00 +20°C° 0.3 mm 5 mps 732 mmHg 96%
    04:00 +20°C° 0.3 mm 5 mps 732 mmHg 96%
    05:00 +20°C° 0.4 mm 5 mps 733 mmHg 95%
    06:00 +20°C° 0.4 mm 5 mps 733 mmHg 95%
    07:00 +20°C° 0.4 mm 4 mps 733 mmHg 95%
    08:00 +20°C° 0.3 mm 4 mps 733 mmHg 93%
    09:00 +21°C° 0.3 mm 4 mps 734 mmHg 92%
    10:00 +21°C° 0.3 mm 4 mps 734 mmHg 90%
    11:00 +22°C° 0.2 mm 4 mps 734 mmHg 87%
    12:00 +22°C° 0.2 mm 5 mps 734 mmHg 84%
    13:00 +23°C° 0.2 mm 5 mps 734 mmHg 82%
    14:00 +23°C° 0.1 mm 5 mps 734 mmHg 81%
    15:00 +23°C° 0.1 mm 5 mps 734 mmHg 80%
    16:00 +23°C° 0.1 mm 6 mps 735 mmHg 79%
    17:00 +22°C° 0.1 mm 5 mps 735 mmHg 83%
    18:00 +21°C° 0.1 mm 5 mps 735 mmHg 86%
    19:00 +21°C° 0.1 mm 5 mps 735 mmHg 89%
    20:00 +20°C° 0.2 mm 4 mps 735 mmHg 91%
    21:00 +20°C° 0.2 mm 4 mps 735 mmHg 93%
    22:00 +19°C° 0.2 mm 4 mps 735 mmHg 95%
    23:00 +19°C° 0.1 mm 4 mps 735 mmHg 95%

    20 July, Friday

    Time Temperature Precipitation Wind Pressure Humidity
    00:00 +19°C° 0.1 mm 4 mps 735 mmHg 96%
    01:00 +18°C° 0.1 mm 4 mps 735 mmHg 96%
    02:00 +18°C° 0.1 mm 4 mps 735 mmHg 96%
    03:00 +18°C° 0.1 mm 4 mps 735 mmHg 96%
    04:00 +18°C° 0.1 mm 4 mps 735 mmHg 95%
    05:00 +18°C° 0.1 mm 4 mps 735 mmHg 94%
    06:00 +19°C° 0.1 mm 4 mps 736 mmHg 93%
    07:00 +19°C° 0.1 mm 4 mps 736 mmHg 92%
    08:00 +19°C° 0.1 mm 4 mps 736 mmHg 90%
    09:00 +20°C° 0.1 mm 4 mps 736 mmHg 87%
    10:00 +20°C° 0.1 mm 4 mps 736 mmHg 85%
    11:00 +21°C° 0.1 mm 4 mps 736 mmHg 83%
    12:00 +21°C° 0.1 mm 5 mps 736 mmHg 80%
    13:00 +22°C° 0.1 mm 5 mps 736 mmHg 78%
    14:00 +22°C° 0 mm 5 mps 736 mmHg 78%
    15:00 +22°C° 0 mm 5 mps 735 mmHg 78%
    16:00 +22°C° 0 mm 5 mps 735 mmHg 77%
    17:00 +21°C° 0 mm 4 mps 735 mmHg 80%
    18:00 +20°C° 0 mm 3 mps 735 mmHg 83%
    19:00 +20°C° 0 mm 3 mps 735 mmHg 85%
    20:00 +19°C° 0 mm 3 mps 735 mmHg 88%
    21:00 +18°C° 0 mm 3 mps 735 mmHg 90%
    22:00 +17°C° 0 mm 3 mps 735 mmHg 93%
    23:00 +17°C° 0 mm 3 mps 735 mmHg 93%

    21 July, Saturday

    Time Temperature Precipitation Wind Pressure Humidity
    00:00 +17°C° 0 mm 3 mps 735 mmHg 94%
    01:00 +16°C° 0 mm 3 mps 735 mmHg 95%
    02:00 +16°C° 0 mm 3 mps 735 mmHg 96%
    03:00 +16°C° 0 mm 3 mps 735 mmHg 96%
    04:00 +16°C° 0 mm 3 mps 734 mmHg 97%
    05:00 +17°C° 0 mm 3 mps 735 mmHg 92%
    06:00 +18°C° 0 mm 2 mps 735 mmHg 88%
    07:00 +19°C° 0 mm 2 mps 735 mmHg 83%
    08:00 +21°C° 0 mm 2 mps 735 mmHg 77%
    09:00 +22°C° 0 mm 3 mps 735 mmHg 71%
    10:00 +25°C° 0 mm 3 mps 735 mmHg 65%
    11:00 +25°C° 0.1 mm 3 mps 734 mmHg 62%
    12:00 +26°C° 0.1 mm 3 mps 734 mmHg 59%
    13:00 +27°C° 0.1 mm 3 mps 734 mmHg 56%
    14:00 +27°C° 0 mm 3 mps 734 mmHg 56%
    15:00 +27°C° 0 mm 3 mps 733 mmHg 56%
    16:00 +26°C° 0 mm 3 mps 733 mmHg 57%
    17:00 +25°C° 0 mm 3 mps 733 mmHg 62%
    18:00 +24°C° 0 mm 2 mps 733 mmHg 68%
    19:00 +23°C° 0 mm 2 mps 733 mmHg 73%
    20:00 +21°C° 0 mm 2 mps 733 mmHg 76%
    21:00 +19°C° 0 mm 2 mps 733 mmHg 79%
    22:00 +18°C° 0 mm 2 mps 733 mmHg 81%
    23:00 +18°C° 0 mm 2 mps 733 mmHg 82%

    22 July, Sunday

    Time Temperature Precipitation Wind Pressure Humidity
    00:00 +18°C° 0 mm 1 mps 733 mmHg 83%
    01:00 +18°C° 0 mm 1 mps 733 mmHg 83%
    02:00 +18°C° 0 mm 1 mps 733 mmHg 84%
    03:00 +16°C° 0 mm 1 mps 733 mmHg 85%
    04:00 +16°C° 0 mm 1 mps 733 mmHg 86%
    05:00 +17°C° 0 mm 2 mps 733 mmHg 82%
    06:00 +19°C° 0 mm 2 mps 734 mmHg 79%
    07:00 +20°C° 0 mm 2 mps 734 mmHg 76%
    08:00 +21°C° 0.1 mm 2 mps 734 mmHg 71%
    09:00 +24°C° 0.1 mm 3 mps 734 mmHg 67%
    10:00 +25°C° 0.1 mm 3 mps 734 mmHg 62%
    11:00 +25°C° 0.2 mm 3 mps 734 mmHg 60%
    12:00 +26°C° 0.2 mm 4 mps 734 mmHg 59%
    13:00 +26°C° 0.2 mm 4 mps 734 mmHg 57%
    14:00 +26°C° 0.1 mm 4 mps 734 mmHg 58%
    15:00 +26°C° 0.1 mm 4 mps 734 mmHg 59%
    16:00 +26°C° 0.1 mm 4 mps 734 mmHg 59%
    17:00 +23°C° 0.1 mm 4 mps 734 mmHg 65%
    18:00 +22°C° 0.1 mm 3 mps 734 mmHg 70%
    19:00 +21°C° 0.1 mm 3 mps 735 mmHg 75%
    20:00 +20°C° 0 mm 3 mps 735 mmHg 77%
    21:00 +19°C° 0 mm 2 mps 735 mmHg 79%
    22:00 +18°C° 0 mm 2 mps 736 mmHg 82%
    23:00 +17°C° 0 mm 2 mps 736 mmHg 82%
    Show more